Torna al catalogo

STARLINK-3784

AttivoComunicazioniVLEO
NORAD 52275·PAYLOAD·🇺🇸 United States

Lanciato Apr 21, 2022 da Cape Canaveral Space Force Station

Loading…

Prossimi Passaggi (prossime 24 ore)

TLE

AggiornatoSource: CelesTrak SupGP

Epoca: Sep 14, 2026, 21:52 UTC

1 52275C 22041Q   26257.91159722 -.00032520  00000+0 -96111-3 0  2579
2 52275  53.1602 333.7458 0001194  87.9020  11.9124 15.34397426    17

Traccia STARLINK-3784 in tempo reale con AllMySat

Download on the App Store